This is the latest recevied weather packets stored in our database for station/object VE2CSM-13. If no packets are shown the sender has not sent any weather packets the latest 10 day(s).
| Time | Temp. | Humidity | Pressure | Rain* | Wind** | Luminosity | Snow |
|---|---|---|---|---|---|---|---|
| 1777795503 | 0.56° C | 95% | 1020.7 hPa | 0 mm | - | - | - |
| 1777793582 | 1.11° C | 95% | 1020.8 hPa | 0 mm | - | - | - |
| 1777792622 | 1.11° C | 95% | 1020.6 hPa | 0 mm | - | - | - |
| 1777791662 | 1.11° C | 95% | 1020.8 hPa | 0 mm | - | - | - |
| 1777791182 | 0.56° C | 95% | 1020.9 hPa | 0 mm | - | - | - |
| 1777790705 | 0.56° C | 95% | 1020.8 hPa | 0 mm | - | - | - |
| 1777790222 | 0.56° C | 95% | 1021 hPa | 0 mm | - | - | - |
| 1777789742 | 0.56° C | 95% | 1020.9 hPa | 0 mm | - | - | - |
| 1777789502 | 0.56° C | 95% | 1020.9 hPa | 0 mm | - | - | - |
| 1777789262 | 0.56° C | 95% | 1020.9 hPa | 0 mm | - | - | - |
| 1777789022 | 1.11° C | 95% | 1021.1 hPa | 0 mm | - | - | - |
| 1777788783 | 1.11° C | 95% | 1021.1 hPa | 0 mm | - | - | - |
| 1777788662 | 1.11° C | 95% | 1021.1 hPa | 0 mm | - | - | - |
| 1777788542 | 1.11° C | 95% | 1021.1 hPa | 0 mm | - | - | - |
| 1777788423 | 1.11° C | 95% | 1021 hPa | 0 mm | - | - | - |
| 1777788303 | 1.11° C | 95% | 1021 hPa | 0 mm | - | - | - |
| 1777788184 | 1.11° C | 95% | 1021 hPa | 0 mm | - | - | - |
| 1777788122 | 1.11° C | 95% | 1021 hPa | 0 mm | - | - | - |
| 1777785422 | 2.22° C | 94% | 1021.2 hPa | 0 mm | - | - | - |
| 1777783622 | 2.78° C | 94% | 1021.3 hPa | 0 mm | - | - | - |
| 1777781822 | 2.78° C | 94% | 1021.6 hPa | 0 mm | - | - | - |
| 1777780024 | 3.33° C | 94% | 1021.7 hPa | 0 mm | - | - | - |
| 1777778222 | 3.33° C | 93% | 1021.8 hPa | 0 mm | - | - | - |
| 1777776422 | 3.33° C | 93% | 1022.1 hPa | 0 mm | - | - | - |
| 1777774622 | 3.33° C | 92% | 1021.9 hPa | 0 mm | - | - | - |
* Rain latest hour (hover to see other rain measurements)
** Current wind speed in m/s (hover to see current wind gust speed)